Bar Harbor, ME

9:10 PM EDT on June 18, 2018 (GMT -0400)
Hancock County-Bar Harbor

Weather History for KBHB - June, 2018

Change the Weather History Date:

Thursday, June 14, 2018

  Actual Average Record
Temperature  
Mean Temperature 52 °F -  
Max Temperature 57 °F 71 °F 83 °F (1969)
Min Temperature 48 °F 47 °F 39 °F (1953)
Degree Days  
Heating Degree Days 12    
Growing Degree Days 2 (Base 50)    
Moisture  
Dew Point 52 °F    
Average Humidity 92    
Maximum Humidity 100    
Minimum Humidity 77    
Precipitation  
Precipitation 0.03 in - - ()
Sea Level Pressure  
Sea Level Pressure 29.63 in    
Wind  
Wind Speed 7 mph (NE)    
Max Wind Speed 13 mph    
Max Gust Speed -    
Visibility 6 miles    
Events Fog , Rain    
Averages and records for this station are not official NWS values.
T = Trace of Precipitation, MM = Missing Value Source: NWS Daily Summary

Daily Weather History Graph

Daily Weather History Graph

Search for Another Location

Airport or City:

Astronomy

Jun. 14, 2018 Rise Set
Actual Time 4:48 AM EDT 8:19 PM EDT
Civil Twilight 4:11 AM EDT 8:56 PM EDT
Nautical Twilight 3:23 AM EDT 9:44 PM EDT
Astronomical Twilight 2:20 AM EDT 10:47 PM EDT
Moon 5:44 AM EDT (6/14) 9:14 PM EDT (6/14)
Length of Visible Light 16h 44m
Length of Day
15h 31m
New Moon, 1% of the Moon is Illuminated
Jun 14
New Moon
Jun 20
First Quarter
Jun 28
Full
Jul 6
Last Quarter
Jul 12
New

Hourly Weather History & Observations

Time (EDT) Temp. Dew Point Humidity Pressure Visibility Wind Dir Wind Speed Gust Speed Precip Events Conditions
12:02 AM 57.2 °F 57.2 °F 100% 29.64 in 1.8 mi SSW 8.1 mph - N/A   Overcast
12:08 AM 57.2 °F 57.2 °F 100% 29.64 in 0.8 mi SSW 8.1 mph - N/A   Overcast
12:22 AM 57.2 °F 57.2 °F 100% 29.63 in 0.5 mi South 6.9 mph - N/A Fog Fog
12:44 AM 57.2 °F 57.2 °F 100% 29.63 in 0.2 mi SSW 6.9 mph - N/A Fog Fog
12:56 AM 57.0 °F 57.0 °F 100% 29.64 in 0.5 mi SSW 4.6 mph - N/A Fog Fog
1:09 AM 57.2 °F 57.2 °F 100% 29.62 in 1.0 mi South 5.8 mph - N/A   Overcast
1:40 AM 57.2 °F 57.2 °F 100% 29.60 in 2.0 mi South 4.6 mph - N/A   Overcast
1:56 AM 57.0 °F 55.9 °F 96% 29.62 in 5.0 mi South 3.5 mph - N/A   Overcast
2:56 AM 55.9 °F 55.9 °F 100% 29.58 in 3.0 mi SE 5.8 mph - 0.00 in Rain Light Rain
3:56 AM 54.0 °F 54.0 °F 100% 29.56 in 2.5 mi East 4.6 mph - 0.01 in   Overcast
4:02 AM 53.6 °F 53.6 °F 100% 29.55 in 1.0 mi East 6.9 mph - N/A   Overcast
4:07 AM 53.6 °F 53.6 °F 100% 29.55 in 0.5 mi East 6.9 mph - N/A Fog Fog
4:23 AM 53.6 °F 53.6 °F 100% 29.54 in 0.2 mi East 6.9 mph - N/A Fog Fog
4:56 AM 54.0 °F 54.0 °F 100% 29.56 in 0.2 mi Variable 4.6 mph - N/A Fog Fog
5:56 AM 53.1 °F 53.1 °F 100% 29.55 in 0.2 mi Variable 5.8 mph - N/A Fog Fog
6:21 AM 53.6 °F 53.6 °F 100% 29.55 in 0.8 mi NE 9.2 mph - N/A   Overcast
6:41 AM 53.6 °F 53.6 °F 100% 29.55 in 1.0 mi East 6.9 mph - N/A   Overcast
6:56 AM 53.1 °F 53.1 °F 100% 29.56 in 1.2 mi ENE 9.2 mph - N/A   Overcast
7:15 AM 53.6 °F 53.6 °F 100% 29.55 in 3.0 mi East 6.9 mph - 0.00 in Rain Light Rain
7:56 AM 52.0 °F 51.1 °F 97% 29.57 in 6.0 mi ENE 6.9 mph - 0.00 in   Overcast
8:26 AM 51.8 °F 51.8 °F 100% 29.56 in 9.0 mi NE 8.1 mph - N/A   Overcast
8:56 AM 52.0 °F 51.1 °F 97% 29.60 in 2.5 mi North 6.9 mph - 0.02 in Rain Light Rain
9:21 AM 51.8 °F 51.8 °F 100% 29.58 in 10.0 mi NNE 8.1 mph - 0.00 in Rain Light Rain
9:37 AM 53.6 °F 51.8 °F 94% 29.58 in 10.0 mi NNE 10.4 mph - 0.00 in   Overcast
9:56 AM 53.1 °F 51.1 °F 93% 29.60 in 10.0 mi NNE 12.7 mph - 0.00 in   Overcast
10:40 AM 55.4 °F 51.8 °F 88% 29.58 in 10.0 mi NE 11.5 mph - N/A   Overcast
10:56 AM 55.0 °F 52.0 °F 89% 29.61 in 10.0 mi North 10.4 mph - N/A   Overcast
11:56 AM 57.0 °F 52.0 °F 83% 29.62 in 10.0 mi NNE 9.2 mph - N/A   Overcast
12:36 PM 57.2 °F 51.8 °F 82% 29.61 in 10.0 mi NNE 9.2 mph - N/A   Overcast
12:56 PM 57.9 °F 52.0 °F 81% 29.63 in 10.0 mi NNE 8.1 mph - N/A   Overcast
1:56 PM 57.9 °F 52.0 °F 81% 29.65 in 10.0 mi North 4.6 mph - N/A   Overcast
2:56 PM 57.0 °F 52.0 °F 83% 29.66 in 10.0 mi North 11.5 mph - N/A   Overcast
3:56 PM 55.0 °F 50.0 °F 83% 29.68 in 10.0 mi NNE 11.5 mph - N/A   Overcast
4:56 PM 55.9 °F 48.9 °F 77% 29.70 in 10.0 mi NNE 8.1 mph - N/A   Overcast
5:56 PM 55.9 °F 48.9 °F 77% 29.73 in 10.0 mi North 6.9 mph - N/A   Overcast
6:56 PM 54.0 °F 48.0 °F 80% 29.75 in 10.0 mi North 9.2 mph - N/A   Overcast
7:56 PM 53.1 °F 46.0 °F 77% 29.78 in 10.0 mi North 9.2 mph - N/A   Overcast
8:56 PM 50.0 °F 45.0 °F 83% 29.79 in 10.0 mi NNE 9.2 mph - N/A   Overcast
9:56 PM 50.0 °F 45.0 °F 83% 29.81 in 10.0 mi North 9.2 mph - N/A   Overcast
10:56 PM 48.9 °F 44.1 °F 83% 29.82 in 10.0 mi North 10.4 mph - N/A   Mostly Cloudy
11:56 PM 48.9 °F 44.1 °F 83% 29.84 in 10.0 mi NNW 4.6 mph - N/A   Overcast